Weather History for KCGI - January, 2011

Change the Weather History Date:

Friday, January 7, 2011

  Actual Average Record
Temperature  
Mean Temperature 39 °F 33 °F  
Max Temperature 47 °F 42 °F 67 °F (1965)
Min Temperature 31 °F 24 °F -1 °F (1968)
Degree Days  
Heating Degree Days 26 32  
Month to date heating degree days 216 224  
Since 1 July heating degree days 1976 1975  
Cooling Degree Days 0 0  
Month to date cooling degree days 0 0  
Year to date cooling degree days 0 0  
Moisture  
Dew Point 28 °F    
Average Humidity 72    
Maximum Humidity 92    
Minimum Humidity 52    
Precipitation  
Precipitation 0.00 in 0.12 in 0.90 in (1989)
Month to date precipitation 0.01 0.83  
Year to date precipitation 0.01 0.83  
Sea Level Pressure  
Sea Level Pressure 29.58 in    
Wind  
Wind Speed 9 mph (NW)    
Max Wind Speed 29 mph    
Max Gust Speed 38 mph    
Visibility 10 miles    
Events      
T = Trace of Precipitation, MM = Missing Value Source: NWS Daily Summary

Daily Weather History Graph

Daily Weather History Graph

Search for Another Location

Airport or City:

Trip Planner

Search our weather history database for the weather conditions in past years. The results will help you decide how hot, cold, wet, or windy it might be!

Date:

Astronomy

Jan. 07, 2011 Rise Set
Actual Time 7:12 AM CST 4:56 PM CST
Civil Twilight 6:43 AM CST 5:25 PM CST
Nautical Twilight 6:11 AM CST 5:57 PM CST
Astronomical Twilight 5:39 AM CST 6:29 PM CST
Moon 9:00 AM CST (1/7) 8:26 PM CST (1/7)
Length of Visible Light 10h 41m
Length of Day
9h 44m
Waxing Crescent, 11% of the Moon is Illuminated
Jan 7
Waxing Crescent
Jan 12
First Quarter
Jan 19
Full
Jan 26
Last Quarter
Feb 2
New

Hourly Weather History & Observations

Time (CST) Temp. Windchill Dew Point Humidity Pressure Visibility Wind Dir Wind Speed Gust Speed Precip Events Conditions
12:53 AM 32.0 °F - 28.9 °F 88% 29.68 in 9.0 mi Calm Calm - N/A   Overcast
1:53 AM 32.0 °F - 28.0 °F 85% 29.65 in 10.0 mi Calm Calm - N/A   Overcast
2:53 AM 32.0 °F - 28.0 °F 85% 29.62 in 8.0 mi Calm Calm - N/A   Overcast
3:53 AM 32.0 °F 28.7 °F 28.9 °F 88% 29.59 in 10.0 mi NE 3.5 mph - N/A   Overcast
4:53 AM 33.1 °F 28.7 °F 28.9 °F 85% 29.56 in 10.0 mi East 4.6 mph - N/A   Overcast
5:53 AM 33.1 °F - 28.9 °F 85% 29.52 in 10.0 mi Calm Calm - N/A   Overcast
6:53 AM 32.0 °F - 28.9 °F 88% 29.52 in 9.0 mi Calm Calm - N/A   Overcast
7:53 AM 33.1 °F - 30.0 °F 89% 29.52 in 8.0 mi Calm Calm - N/A   Overcast
8:53 AM 36.0 °F 33.3 °F 30.9 °F 82% 29.51 in 10.0 mi SSW 3.5 mph - N/A   Clear
9:53 AM 37.9 °F 30.9 °F 30.9 °F 76% 29.51 in 10.0 mi West 10.4 mph - N/A   Mostly Cloudy
10:53 AM 44.1 °F 39.0 °F 30.0 °F 58% 29.51 in 10.0 mi NNW 9.2 mph - N/A   Scattered Clouds
11:53 AM 46.0 °F 41.0 °F 30.0 °F 54% 29.48 in 10.0 mi WNW 10.4 mph 18.4 mph N/A   Mostly Cloudy
12:53 PM 44.6 °F 38.4 °F 30.2 °F 57% 29.48 in 10.0 mi NNW 12.7 mph - N/A   Overcast
1:53 PM 45.0 °F 37.6 °F 28.9 °F 53% 29.52 in 10.0 mi NW 17.3 mph 27.6 mph N/A   Overcast
2:53 PM 42.1 °F 34.5 °F 28.0 °F 58% 29.57 in 10.0 mi NNW 15.0 mph 27.6 mph N/A   Overcast
3:53 PM 41.0 °F 31.6 °F 26.1 °F 55% 29.60 in 10.0 mi NW 20.7 mph 28.8 mph N/A   Overcast
4:53 PM 39.0 °F 29.6 °F 28.0 °F 65% 29.62 in 10.0 mi NW 18.4 mph 29.9 mph N/A   Overcast
5:53 PM 36.0 °F 29.6 °F 27.0 °F 70% 29.63 in 10.0 mi NNW 8.1 mph - N/A   Mostly Cloudy
6:53 PM 35.1 °F 32.2 °F 27.0 °F 72% 29.64 in 10.0 mi WNW 3.5 mph - N/A   Overcast
7:53 PM 37.0 °F 29.3 °F 27.0 °F 67% 29.63 in 10.0 mi West 11.5 mph - N/A   Overcast
8:53 PM 37.0 °F 31.0 °F 27.0 °F 67% 29.64 in 10.0 mi WNW 8.1 mph - N/A   Overcast
9:53 PM 37.9 °F 27.9 °F 21.9 °F 53% 29.63 in 10.0 mi WNW 19.6 mph 27.6 mph N/A   Overcast
10:53 PM 37.9 °F 28.2 °F 21.9 °F 53% 29.63 in 10.0 mi WNW 18.4 mph 27.6 mph N/A   Overcast
11:53 PM 34.0 °F 25.5 °F 28.0 °F 79% 29.65 in 10.0 mi North 11.5 mph - N/A   Overcast